Regional Weather Roundup
Issued by NWS

Home | Current Version | Previous Version | Text Only | Print | Product List | Glossary On
Versions: 1 2 3 4 5 6 7 8 9 10 11 12 13 14 15 16 17 18 19 20 21 22 23 24 25 26 27 28 29 30 31 32 33 34 35 36 37 38 39 40 41 42 43 44 45 46 47 48 49 50
000
ASUS42 KTBW 290810
RWRFL
FLORIDA REGIONAL WEATHER ROUNDUP
NATIONAL WEATHER SERVICE TAMPA BAY RUSKIN FL
400 AM EDT FRI AUG 29 2014

NOTE: "FAIR" INDICATES FEW OR NO CLOUDS BELOW 12,000 FEET WITH NO
SIGNIFICANT WEATHER AND/OR OBSTRUCTIONS TO VISIBILITY.


FLZ001>010-012>015-112-114-115-290900-
PANHANDLE FLORIDA

CITY           SKY/WX    TMP DP  RH WIND       PRES   REMARKS
PENSACOLA      CLEAR     76  73  91 NE5       29.97S
PENSACOLA NAS  CLEAR     74  72  93 CALM      29.96F
MILTON NAS     CLEAR     71  67  87 CALM      29.98F FOG
CRESTVIEW      CLEAR     69  67  93 CALM      30.01R
DUKE FIELD     FAIR      71  69  95 NE2       29.99S
VALPARAISO     PTCLDY    76  71  82 NE1       29.97F
TRI COUNTY     LGT RAIN  70  69  97 CALM      30.01S
PANAMA CITY    FAIR      74  70  87 N5        29.98S
TYNDALL AFB    CLEAR     73  73  99 NE2       29.98F
APALACHICOLA   PTCLDY    73  70  90 NE6       29.97F

STATION/POSITION SKY/WX   TEMP    WIND        PRES    WAVE   SWELL
                          AIR SEA DIR/SP/G            HT/PER HT/PER
                          (F)     (DEG/KT/KT) (MB)    (FT/S) (FT/S)
30.1N   87.6W              85 85  140/ 14/ 16 1014.4F   3/ 5   2/ 7
29.2N   88.2W              85 85  120/ 14/ 16 1013.9F
28.8N   86.0W              85 86  120/ 12/ 14 1013.7F   3/ 6
PANAMA CITY BEAC           79 85   50/  5/  6 1015.0F
CAPE SAN BLAS    NOT AVBL
TOWER C                    85      90/  9/ 10 1014.7F
28.5N   84.5W              86 86   90/  6/  8 1014.3F   2/ 6   2/ 6

$$
FLZ011-016>038-118-127-128-134-139-239-290900-
NORTH FLORIDA

CITY           SKY/WX    TMP DP  RH WIND       PRES   REMARKS
MARIANNA       PTCLDY    72  71  97 CALM      30.00S
TALLAHASSEE    CLEAR     69  64  84 CALM      30.00F
PERRY          CLEAR     72  68  88 SE6       30.00F
CROSS CITY       N/A     76  72  87 E3        30.00S
LAKE CITY      FAIR      66  66 100 E3        30.02S
GAINESVILLE    MOCLDY    72  71  97 CALM      30.02S
MAYPORT NAS    CLEAR     75  72  90 CALM      30.01F
JACKSONVILLE   CLEAR     70  69  97 CALM      30.01S
JAX NAS        CLEAR     82  74  76 S7        30.02S
JAX CRAIG      CLEAR     72  69  90 CALM      30.01F
JAX CECIL      CLEAR     66  66 100 CALM      30.02S
FERNANDINA BEA FAIR      73  72  94 CALM      30.00S
ST AUGUSTINE   CLEAR     76  73  91 S3        30.02S

STATION/POSITION SKY/WX   TEMP    WIND        PRES    WAVE   SWELL
                          AIR SEA DIR/SP/G            HT/PER HT/PER
                          (F)     (DEG/KT/KT) (MB)    (FT/S) (FT/S)
SHELL POINT                74      30/  4/  6   N/A
KEATON BEACH               74      80/  8/  9 1015.8F
CEDAR KEY                  81     120/ 13/ 15 1016.3F
FERNANDINA                 77 83  180/  2/  2 1015.7S
30.7N   81.3W                 84                N/A     3/ 9
MAYPORT                    78 83  210/  1/  1   N/A
31.4N   80.9W              82 84  210/  8/ 10 1016.3F   2/ 9   2/ 9
ST AUGUSTINE               82     160/ 10/ 11 1016.9S

$$
FLZ040-043>046-052-053-057-058-063-144-290900-
INTERIOR CENTRAL FLORIDA

CITY           SKY/WX    TMP DP  RH WIND       PRES   REMARKS
OCALA          MOCLDY    79  73  83 CALM      30.02S
LEESBURG       CLEAR     79  75  87 E6        30.01F
SANFORD        PTCLDY    79  75  87 CALM      30.00F
ORLANDO EXEC   PTCLDY    78  75  90 SE6       30.01S
ORLANDO INTL   MOCLDY    77  75  93 SE3       30.01F
WINTER HAVEN   CLOUDY    79  73  82 E5        30.02S
LAKELAND       MOCLDY    77  73  88 CALM      30.00F
BARTOW         FAIR      75  75 100 E3        30.01F
OKEECHOBEE       N/A     72  72 100 MISG      30.01

$$
FLZ041-047-054-059-064-141-147-290900-
EAST CENTRAL FLORIDA

CITY           SKY/WX    TMP DP  RH WIND       PRES   REMARKS
DAYTONA BEACH  CLEAR     77  75  93 E3        30.01F
DELAND         SUNNY     75  73  94 CALM      30.02F
JFK SPACE CTR  CLOUDY    80  74  84 S3        30.01S
CAPE CANAVERAL CLEAR     79  73  80 SW2       30.00F
PATRICK AFB    PTCLDY    81  73  78 SW3       30.01S
MELBOURNE      PTCLDY    78  71  79 CALM      30.01S
VERO BEACH     CLEAR     73  72  96 CALM      30.01F
FT PIERCE      CLEAR     74  70  87 CALM      30.00F
STUART         CLEAR     73  72  94 CALM      30.01F

STATION/POSITION SKY/WX   TEMP    WIND        PRES    WAVE   SWELL
                          AIR SEA DIR/SP/G            HT/PER HT/PER
                          (F)     (DEG/KT/KT) (MB)    (FT/S) (FT/S)
28.5N   80.2W              82 83  210/ 10/ 12 1016.6F
28.9N   78.5W              82 83  180/  8/  8 1016.8S   4/ 8   3/ 8
TRIDENT PIER               82 84  200/  5/  6 1015.7F
28.4N   80.5W                 83                N/A     2/ 9
27.6N   80.2W                 85                N/A     3/ 9   2/11

$$
FLZ050-056-061-142-242-148-248-149-249-151-251-155-255-
160-260-290900-
WEST CENTRAL FLORIDA

CITY           SKY/WX    TMP DP  RH WIND       PRES   REMARKS
CRYSTAL RIVER  PTSUNNY   77  72  83 CALM      30.01S
INVERNESS      FAIR      77  72  83 CALM      30.01F
BROOKSVILLE    MOCLDY    77  74  90 CALM      30.00F
ZEPHYRHILLS    PTSUNNY   72  72 100 CALM      30.01S
CLEARWATER     PTCLDY    80  75  84 SE5       29.98F
TAMPA INTL     MOCLDY    80  73  79 E3        29.99F
TAMPA EXEC     CLEAR     77  73  88 CALM      30.00S
MACDILL AFB    PTCLDY    79  77  94 E5        29.98F
ST PETERSBURG    N/A    N/A N/A N/A MISG      29.97F
SARASOTA       PTCLDY    79  76  90 SE7       29.96F
VENICE           N/A    N/A N/A N/A MISG        N/A

STATION/POSITION SKY/WX   TEMP    WIND        PRES    WAVE   SWELL
                          AIR SEA DIR/SP/G            HT/PER HT/PER
                          (F)     (DEG/KT/KT) (MB)    (FT/S) (FT/S)
CEDAR KEY                  81     120/ 13/ 15 1016.3F
28.5N   84.5W              86 86   90/  6/  8 1014.3F   2/ 6   2/ 6
27.3N   84.3W                 86                N/A     2/ 5
CLEARWATER BEACH           81 87  130/  5/  7 1014.8S
MIDDLE TAMPA BAY           80     130/  6/  7 1015.3F
VENICE                     79 88   90/  5/  6 1014.8F

$$
FLZ066-069-070-075>078-162-262-165-265-290900-
SOUTHWEST FLORIDA AND KEYS

CITY           SKY/WX    TMP DP  RH WIND       PRES   REMARKS
PUNTA GORDA    PTCLDY    78  76  93 CALM      30.00F
FT MYERS       PTCLDY    77  76  96 CALM      29.98F
SOUTHWEST INTL PTCLDY    76  75  97 SE3       29.98F
NAPLES         PTCLDY    80  77  90 E5        29.98F
MARCO ISLAND   SUNNY     79  79 100 SE3       29.98F
MARATHON       PTCLDY    85  78  80 SE8       29.98S HX  96
KEY WEST NAS   PTCLDY    84  76  76 SE7       29.98S
KEY WEST INTL  PTCLDY    86  76  71 SE8       29.99S HX  96

STATION/POSITION SKY/WX   TEMP    WIND        PRES    WAVE   SWELL
                          AIR SEA DIR/SP/G            HT/PER HT/PER
                          (F)     (DEG/KT/KT) (MB)    (FT/S) (FT/S)
VENICE                     79 88   90/  5/  6 1014.8F
NAPLES                     80     110/  5/  6 1015.7F
DRY TORTUGAS               85     160/ 11/ 12 1015.0F
NW FL BAY                  86     160/ 12/ 14 1015.8F
SAND KEY                   85     150/ 10/ 12 1015.3S
SOMBRERO KEY               85     110/ 10/ 12 1016.1R
LONG KEY                   85 87  140/ 10/ 11 1016.0F
MOLASSES REEF              85 87  110/  8/  9 1015.5R

$$
FLZ067-068-071>074-168-172>174-290900-
SOUTHEAST FLORIDA

CITY           SKY/WX    TMP DP  RH WIND       PRES   REMARKS
W PALM BEACH   PTCLDY    78  74  87 CALM      29.99S
FT LAUDER-EXEC PTCLDY    81  78  91 CALM      29.99S
FT LAUDERDALE  PTCLDY    83  75  77 S3        29.98F
POMPANO BEACH  CLEAR     85  75  72 S3        29.99F
PEMBROKE PINES CLEAR     81  76  84 CALM      30.00F
OPA LOCKA      PTCLDY    81  75  82 CALM      29.99F
MIAMI          PTCLDY    82  76  81 SE3       29.99F
WEST KENDALL   PTCLDY    78  74  87 CALM      29.99F
HOMESTEAD      PTCLDY    80  76  89 CALM      29.99S

STATION/POSITION SKY/WX   TEMP    WIND        PRES    WAVE   SWELL
                          AIR SEA DIR/SP/G            HT/PER HT/PER
                          (F)     (DEG/KT/KT) (MB)    (FT/S) (FT/S)
PORT EVERGLADES            85     150/  7/ 11 1015.4
VIRGINIA KEY               85 86  140/  6/  8   N/A
LAKE WORTH                 83 87  200/  4/  5 1015.5R
FOWEY ROCKS                85 86  120/ 12/ 13 1015.8S
SETTLEMENT POINT           83     120/  3/  3 1016.9S

$$



USA.gov is the U.S. government's official web portal to all federal, state and local government web resources and services.